Vorticity
2 2 3 3 3 4 4 5 6 8 11 14 18 19 15 9 3 3 7 12 13 11 8 6 4 3 6 10 12 9 8 11 14 15 13 10 8 5 4 4 4 4 4 4 4 4 4 4 5 4 3 3 3 3 5 7 3 2 8 12 12 10 9 7 6 9 7 4 5 8 9 7 6 6 5 7 9 8 7 7 7 7 6 7 9 8 7 8
2 2 2 3 3 3 3 4 5 6 7 9 12 16 19 18 13 7 3 4 10 14 13 10 7 4 3 5 9 12 10 8 9 12 13 12 12 8 6 6 5 5 4 4 4 4 4 3 4 4 4 5 4 3 2 5 6 4 5 7 9 8 10 10 7 7 8 6 4 6 8 7 6 6 6 6 8 8 7 8 7 7 7 7 8 9 8 8
2 2 2 2 2 3 3 3 4 5 6 7 9 11 14 16 17 15 11 5 4 9 13 14 12 8 6 3 5 9 11 11 7 8 9 10 12 12 10 7 6 6 5 4 3 3 3 3 3 2 4 6 7 5 2 2 6 7 3 3 6 5 6 8 8 8 9 8 4 5 7 7 7 6 6 6 7 8 6 8 8 6 7 8 9 9 8 8
2 2 2 2 2 2 3 3 3 4 5 5 7 9 11 12 13 14 14 11 6 6 8 12 14 12 10 6 4 5 7 11 10 8 8 8 9 11 12 10 8 8 7 5 4 4 3 3 3 2 2 4 8 6 3 3 3 5 3 3 6 5 4 6 6 6 8 11 7 5 5 5 7 7 6 6 7 8 7 7 8 6 5 8 9 9 8 7
2 2 2 2 2 2 3 3 3 4 4 4 5 7 8 10 11 11 12 11 9 7 7 9 12 13 13 10 7 5 5 9 9 8 8 8 7 8 10 10 11 9 8 8 5 5 4 4 4 4 3 3 6 5 2 2 -1 2 4 4 7 6 6 7 6 4 3 8 8 7 7 4 6 7 6 6 7 8 8 7 8 7 6 7 9 9 7 7
3 2 2 2 2 3 3 3 3 3 4 4 5 6 7 9 11 12 12 10 8 7 7 8 10 11 13 13 10 7 6 6 5 6 9 8 6 7 8 9 11 10 9 9 7 6 5 4 4 4 5 4 4 3 3 3 0 2 4 5 7 6 7 9 10 5 -1 0 2 6 11 6 4 7 7 5 7 6 5 7 8 6 6 8 8 9 8 6
4 3 2 2 2 2 3 3 3 3 4 4 4 6 6 7 8 11 13 12 10 7 6 7 8 10 12 12 13 11 8 7 6 7 8 9 7 6 8 8 9 11 11 10 8 7 6 5 4 3 4 4 2 2 5 7 4 3 3 5 6 5 6 8 9 7 3 1 -2 3 11 9 4 6 6 6 7 6 4 5 8 6 6 8 8 9 9 7
5 4 3 3 2 2 3 3 3 3 4 3 4 5 6 6 6 9 12 14 13 9 7 6 7 9 10 11 13 12 10 8 7 7 6 9 9 6 8 8 8 11 10 10 10 8 6 5 4 4 4 4 2 2 5 6 4 4 3 4 5 4 5 5 6 9 11 6 1 3 7 10 7 6 8 7 6 6 6 5 7 7 6 8 8 9 10 8
6 5 4 4 3 3 3 4 4 3 3 3 3 4 5 6 6 7 9 12 14 14 10 6 6 8 9 11 12 12 12 10 7 7 6 8 8 7 8 7 7 9 9 8 10 10 9 7 5 4 4 4 3 2 3 1 2 3 2 4 4 3 4 5 6 11 12 6 6 7 5 6 5 7 9 7 8 6 5 6 6 8 7 7 8 9 11 10
7 6 5 4 3 3 4 4 4 4 3 3 3 5 5 5 6 7 8 10 12 15 14 10 7 5 8 10 11 14 14 10 9 8 7 7 7 8 8 9 8 8 9 9 9 10 10 9 6 5 4 4 4 2 2 1 2 2 1 3 3 3 4 4 3 6 9 8 11 14 8 1 -0 10 8 1 8 6 4 7 6 8 8 7 7 8 10 10
7 7 5 4 4 4 4 4 4 3 3 3 4 4 5 6 6 6 7 8 9 12 15 14 10 6 6 7 9 14 14 11 11 9 8 7 6 7 7 10 10 8 9 9 9 8 10 11 8 6 5 4 4 3 2 1 2 3 3 3 3 4 4 4 3 1 2 4 10 15 9 3 4 13 10 0 7 7 4 7 7 8 8 6 6 7 9 10
7 6 5 4 4 4 5 4 4 4 4 3 4 5 6 6 6 6 7 7 8 11 13 15 14 10 7 6 9 13 13 12 12 10 10 9 7 8 7 8 9 8 9 10 9 8 9 11 10 10 8 6 5 6 8 5 2 3 3 3 4 5 4 3 2 -0 0 -0 6 11 7 11 14 10 8 5 7 6 5 7 6 7 8 7 5 6 8 10
6 5 5 5 5 5 5 4 4 4 4 3 4 5 6 6 6 6 7 8 9 9 11 13 15 14 9 8 8 9 9 11 12 10 11 10 8 8 6 8 8 8 11 9 6 6 7 7 8 10 9 8 6 5 8 7 4 4 3 4 3 4 6 5 3 2 3 1 3 7 6 14 16 7 6 8 7 6 5 5 6 7 7 7 7 6 8 10
5 5 5 5 5 5 5 4 4 4 4 3 4 5 6 6 5 6 8 9 9 9 11 11 13 14 12 9 7 7 9 11 12 12 12 11 10 9 8 9 8 8 12 10 5 5 5 5 6 7 6 8 7 2 2 3 3 3 3 6 6 5 5 5 4 2 3 3 3 4 9 14 7 1 7 8 6 7 6 5 5 7 7 7 8 6 8 12
4 5 5 5 5 5 5 4 4 4 3 3 3 5 6 5 5 7 9 8 9 10 10 10 10 13 13 12 10 8 7 6 9 11 12 12 11 10 9 9 9 9 11 10 8 6 6 6 5 7 6 5 7 6 6 5 4 4 4 4 5 5 3 4 7 5 2 3 3 -0 7 17 11 4 7 9 6 6 8 4 2 8 8 6 8 6 10 13
5 5 5 5 5 5 5 4 4 3 3 3 2 4 5 4 5 8 9 8 8 9 10 10 10 12 14 14 12 10 8 8 10 11 12 12 11 11 11 10 9 9 10 10 8 7 8 8 6 7 8 7 9 9 7 8 9 11 10 6 3 4 3 2 6 9 5 3 4 2 4 14 16 9 5 8 8 4 8 5 1 8 8 7 8 7 12 13
5 5 5 5 4 4 4 5 4 3 3 2 2 4 4 4 5 8 8 7 7 9 10 10 10 12 13 12 12 11 10 10 10 10 11 11 10 11 11 11 11 10 10 9 8 7 7 10 8 6 8 8 8 7 4 7 14 15 10 9 9 8 7 4 2 6 6 4 6 7 7 6 9 11 7 6 8 6 9 7 3 5 7 9 10 9 12 11
5 4 5 4 4 4 4 4 4 4 3 3 3 2 3 4 4 6 7 6 7 9 9 9 11 13 13 12 13 11 8 7 8 9 10 10 11 12 11 11 11 11 10 9 8 7 6 8 9 8 9 9 8 8 3 0 7 10 5 5 6 3 6 8 6 6 6 8 9 10 10 6 6 11 9 5 6 9 11 7 5 5 5 10 12 10 10 9
4 4 5 4 4 4 4 5 4 4 3 4 3 1 3 5 3 5 6 6 7 7 6 8 11 14 13 13 14 13 11 9 7 9 10 11 11 11 11 11 11 11 11 10 8 7 7 6 8 9 7 8 8 6 3 -2 1 8 6 4 3 3 5 5 6 9 10 11 13 12 10 8 7 8 9 8 5 10 13 7 5 5 3 7 10 10 10 7
4 4 4 4 4 4 4 5 4 4 4 4 3 2 4 3 1 5 6 6 7 5 5 7 9 13 13 13 13 13 12 10 8 7 9 10 9 9 10 10 10 11 11 10 11 10 6 6 9 8 4 4 5 2 2 2 2 7 7 5 7 9 12 9 7 10 12 13 13 12 10 8 7 8 12 11 6 13 15 8 5 4 2 5 8 10 10 7
4 4 4 4 4 4 4 4 5 5 4 4 3 3 5 2 2 5 4 5 7 6 6 6 7 12 14 13 14 14 13 11 9 8 9 9 8 9 9 9 9 10 11 11 13 10 6 10 10 7 6 5 5 3 3 4 4 6 6 5 5 6 9 10 9 9 9 12 13 10 8 9 7 8 15 12 8 14 12 6 7 4 1 2 7 11 11 7
5 5 4 4 4 4 4 4 5 5 4 5 4 4 5 3 4 5 3 5 5 5 6 4 6 13 15 14 14 14 14 12 10 8 8 9 9 10 9 8 7 9 13 12 13 10 9 14 9 4 7 6 5 4 4 6 5 5 5 5 8 7 5 5 9 12 9 10 14 9 6 10 7 6 15 14 7 11 9 6 8 5 0 0 4 11 14 11
5 5 4 4 4 4 4 4 4 4 5 4 4 5 5 3 5 5 4 3 3 6 5 3 8 12 12 15 15 14 14 13 12 9 8 7 8 10 10 8 8 10 13 12 13 13 10 11 7 5 7 5 4 4 2 4 4 4 5 4 7 7 5 5 6 8 9 8 12 10 4 9 9 5 17 20 7 6 9 8 7 6 3 0 1 5 11 12
5 5 5 4 4 4 4 4 4 4 4 3 4 6 4 4 5 4 4 3 3 6 4 4 10 9 10 14 12 13 13 11 12 12 11 8 7 10 11 10 9 10 12 10 12 14 10 9 8 6 7 6 6 5 3 3 3 4 5 6 8 8 6 7 5 4 8 8 12 14 6 7 10 5 20 28 10 5 11 9 6 5 4 2 1 3 5 10
6 6 5 5 4 4 4 4 4 4 4 4 4 4 3 4 4 3 5 3 3 5 4 6 8 7 8 9 8 12 13 9 10 11 11 10 8 8 10 10 9 9 11 11 12 12 7 8 11 7 5 6 7 10 9 8 8 7 8 8 7 9 8 7 7 9 12 9 11 15 8 8 12 8 20 28 9 5 14 10 6 5 5 4 2 4 4 6
8 7 7 7 6 5 5 4 4 4 4 4 4 3 4 4 2 4 4 2 4 5 4 6 7 6 5 5 10 14 14 12 12 11 10 9 7 8 8 8 9 9 9 12 12 10 6 8 12 10 7 8 10 12 11 10 11 9 10 9 7 11 10 5 7 10 9 6 6 10 6 3 9 8 16 23 7 2 12 10 6 5 4 6 3 4 5 5
6 6 7 7 7 7 7 6 6 5 4 4 4 4 3 3 3 4 3 2 5 6 6 7 6 5 4 6 11 13 15 16 13 12 12 11 9 10 9 7 9 9 10 12 10 8 8 10 12 13 14 14 13 13 11 11 11 8 9 9 9 11 7 4 11 9 5 8 9 13 12 3 6 8 14 29 15 -2 8 11 7 6 3 4 5 4 4 4
1 2 3 4 4 5 5 5 6 6 6 4 5 5 4 5 5 4 3 4 5 6 8 7 4 4 6 8 9 10 15 15 12 13 12 11 10 10 10 8 10 11 11 10 6 4 8 10 12 15 15 13 13 13 13 15 14 13 15 12 9 8 2 5 14 8 5 13 9 8 13 8 6 7 12 32 28 6 9 12 6 7 4 2 5 5 5 3
4 3 4 3 3 3 3 3 3 4 5 4 5 6 5 6 5 4 4 5 5 5 4 4 5 7 7 7 7 9 13 13 10 10 8 8 10 10 10 11 12 12 9 7 6 4 6 10 11 11 10 10 13 13 12 16 14 11 12 9 9 8 4 7 12 9 9 15 10 4 12 10 4 4 4 14 23 16 14 12 6 7 6 4 4 3 5 6
6 6 6 5 5 5 5 5 5 4 4 4 5 5 6 7 6 6 6 5 5 4 4 7 8 7 5 6 7 7 10 13 10 6 6 8 9 10 11 12 12 10 6 6 7 6 6 9 11 9 9 9 12 11 10 14 14 9 6 8 10 7 7 12 11 11 14 14 11 6 10 10 3 7 9 3 8 13 12 12 13 10 6 5 6 5 4 5
4 4 5 5 5 5 5 5 5 5 4 4 5 4 5 7 6 6 7 8 7 6 7 9 7 5 5 6 6 6 9 12 11 10 10 11 11 11 12 11 11 10 9 10 8 8 10 11 10 9 10 9 10 10 7 8 9 7 7 9 10 5 8 16 13 12 16 13 12 10 10 12 3 1 11 9 5 9 8 8 12 14 10 5 4 6 8 8
8 9 10 10 9 7 6 5 4 5 5 4 4 4 5 4 3 7 11 10 7 6 8 7 4 5 6 5 6 7 8 8 11 13 13 15 14 13 8 7 10 10 13 15 10 8 13 14 10 7 10 12 10 9 5 4 6 7 10 10 10 9 9 14 13 7 8 9 10 9 10 16 8 -3 3 7 6 8 11 10 9 11 15 14 9 4 4 6
16 17 17 17 17 15 13 12 10 9 8 7 7 6 5 4 5 11 14 10 6 6 7 5 4 5 5 5 5 6 7 7 11 13 15 17 16 15 10 9 14 8 3 10 11 9 12 16 16 8 8 14 11 7 4 3 5 7 12 10 7 10 7 8 13 10 8 11 9 8 15 17 11 8 7 3 4 6 8 12 10 4 9 14 14 12 9 4
16 16 16 16 18 18 18 18 17 17 15 12 10 8 8 9 12 15 11 6 6 8 7 5 6 6 5 5 4 5 6 8 11 12 14 15 14 16 13 12 16 8 3 9 12 11 7 9 19 13 5 10 10 7 7 7 8 7 12 13 7 11 10 5 10 10 8 10 6 9 20 17 6 9 15 8 5 5 4 8 9 8 8 6 7 12 17 16
10 11 12 12 13 14 15 17 19 20 20 18 16 13 13 14 15 14 8 6 7 7 7 8 7 7 6 4 4 5 6 7 10 12 12 13 13 15 14 11 10 8 12 15 10 13 9 5 14 12 5 8 7 7 9 8 8 6 9 12 8 11 13 7 6 7 6 6 8 10 15 19 11 5 9 8 5 5 3 4 5 9 11 8 8 4 10 35
6 7 8 10 11 11 11 12 14 17 18 18 17 15 18 20 17 13 8 6 7 7 9 9 8 7 5 3 4 6 7 7 9 10 11 11 12 13 14 12 10 10 15 14 7 9 11 12 16 10 6 9 3 4 7 4 5 7 7 9 7 8 14 15 11 13 14 10 13 14 8 15 19 12 11 9 5 4 2 3 4 7 8 7 13 7 5 35
5 6 6 7 8 9 10 10 10 12 12 12 13 14 18 19 17 16 11 8 7 7 9 9 7 6 4 6 7 4 6 7 7 9 9 10 11 12 13 13 14 17 16 12 7 3 2 9 13 6 6 7 2 2 3 2 6 7 5 6 6 9 14 16 10 12 15 9 12 19 9 3 7 12 18 17 11 9 3 1 2 4 8 5 8 13 6 13
7 7 7 8 8 7 8 9 9 9 7 8 11 13 14 13 13 15 14 13 10 8 9 8 4 4 7 10 6 1 6 8 6 7 9 10 11 11 11 12 15 18 14 10 9 5 1 6 8 5 6 6 6 7 4 4 4 2 3 5 4 5 10 14 12 12 13 8 8 15 14 13 11 7 11 13 13 15 9 4 2 -0 5 5 3 11 11 4
12 10 10 10 11 9 7 8 10 10 9 10 11 10 11 11 10 11 11 11 11 10 10 6 4 8 10 6 1 2 9 8 5 8 8 8 11 12 10 11 12 12 10 9 10 7 6 6 6 7 8 6 6 8 6 7 4 1 4 7 4 5 6 5 4 5 8 9 8 9 12 20 18 6 4 5 7 13 13 9 6 1 2 4 3 5 10 10
16 14 13 12 13 13 10 7 9 11 12 12 10 8 10 10 8 8 8 8 9 10 10 10 11 10 6 4 4 5 7 6 6 7 5 5 10 12 10 7 10 9 5 7 9 7 7 6 5 7 9 8 7 7 8 8 4 2 4 7 7 8 7 4 3 4 4 4 7 10 8 8 13 18 17 10 6 10 14 12 10 6 2 2 4 3 4 8
16 15 13 13 12 13 13 10 8 9 11 11 10 9 9 8 8 8 8 9 10 9 11 14 14 9 7 10 8 5 6 8 8 3 3 7 9 9 8 7 9 8 2 4 9 9 9 8 6 5 4 8 8 4 3 3 5 8 11 13 11 7 7 7 11 15 11 5 5 7 4 -0 8 20 21 15 12 10 11 13 12 11 7 3 3 4 4 5
13 14 13 13 11 11 12 11 9 9 9 10 11 10 9 8 9 9 8 11 13 12 14 16 13 10 12 11 6 6 10 9 6 2 2 6 9 8 9 10 11 6 1 6 10 10 11 7 4 3 1 4 4 0 1 7 13 16 15 14 11 9 10 9 7 8 8 8 8 10 11 7 6 13 16 17 16 11 9 11 12 12 12 7 4 3 3 4
12 12 13 14 12 10 9 8 8 8 8 10 10 9 10 10 10 10 11 13 14 14 16 15 15 14 12 10 7 8 9 8 6 5 2 5 10 9 7 10 13 5 1 8 10 7 9 8 4 6 5 4 2 1 7 13 13 13 16 15 10 9 14 12 5 3 4 5 7 10 10 4 6 14 17 16 15 11 10 9 10 13 15 12 9 5 2 3
14 13 13 14 13 12 11 8 8 7 7 10 11 10 11 11 11 12 13 13 13 14 16 15 15 14 11 10 9 5 7 10 7 3 2 5 11 10 6 8 14 8 2 10 12 5 5 5 5 7 7 7 8 10 14 13 6 7 13 11 5 7 12 12 9 10 13 11 11 11 5 -1 11 21 16 13 15 13 11 9 7 10 12 14 14 9 5 2
18 16 14 14 14 14 14 12 11 11 10 11 11 11 11 11 12 13 14 14 13 13 14 13 13 13 11 11 10 6 7 11 7 3 2 4 9 14 10 6 10 9 4 7 10 4 1 2 3 6 7 8 10 12 13 10 2 3 7 4 1 7 11 11 10 10 10 11 12 14 9 3 9 14 8 10 14 12 12 12 10 9 9 11 14 13 10 6
17 17 16 16 15 14 14 15 15 15 14 14 13 12 12 12 12 15 15 14 14 14 13 13 12 13 11 9 10 10 8 8 7 6 3 1 5 14 14 9 6 5 4 5 5 2 0 2 2 3 5 4 1 1 5 4 -1 1 7 7 5 5 6 9 12 10 7 9 10 12 13 9 7 8 8 9 10 10 12 14 13 14 13 12 13 14 14 11
15 16 15 15 16 15 15 16 17 17 16 15 14 13 13 13 14 16 15 14 15 15 12 12 13 12 11 9 10 12 11 7 6 7 6 3 3 9 15 13 6 2 4 5 3 1 1 4 5 4 4 2 -1 0 4 3 1 2 6 9 8 6 5 9 14 14 11 10 8 9 15 14 9 10 11 9 9 10 11 12 13 15 17 18 18 16 14 15
14 15 16 15 16 16 16 16 17 17 16 15 15 14 14 14 13 14 16 15 15 14 11 11 12 11 11 11 10 11 11 8 6 7 6 2 1 7 12 13 11 5 3 4 4 3 4 3 5 6 4 2 2 5 5 3 3 3 3 6 11 10 8 9 12 14 14 13 9 5 7 8 6 7 8 9 12 13 12 11 11 13 17 22 24 22 16 14
13 13 14 14 15 16 16 16 16 16 16 14 14 14 13 14 14 13 15 16 15 13 11 9 9 10 12 12 11 10 10 8 6 7 8 4 1 4 7 11 13 9 6 6 3 2 6 4 1 4 7 6 5 5 5 5 4 3 2 7 11 11 11 11 11 12 16 18 16 10 6 7 8 8 7 8 11 13 13 11 9 9 13 19 25 27 21 15
11 12 13 12 13 14 14 14 14 15 15 15 14 14 13 12 13 13 14 15 15 14 13 10 9 11 13 13 10 9 9 8 6 5 8 7 2 2 6 11 13 10 9 10 5 3 7 5 1 5 8 7 6 4 4 5 4 4 5 7 9 10 11 12 12 14 16 18 20 19 15 12 12 11 10 9 10 10 10 7 5 5 7 13 23 26 24 19
10 11 11 10 11 13 13 13 13 13 13 13 12 12 12 12 13 14 14 14 14 14 14 14 13 12 13 14 10 8 8 7 5 5 6 6 5 5 6 8 12 12 8 7 7 7 7 6 6 7 6 6 6 3 3 6 7 5 5 7 9 9 11 13 14 14 12 10 13 17 16 14 15 15 13 10 10 9 7 5 5 5 6 11 20 26 25 21
12 11 11 10 9 12 13 13 12 11 12 13 12 11 10 11 12 12 12 13 14 13 13 14 15 14 14 13 9 9 10 6 4 5 5 4 6 4 1 3 10 13 10 8 7 4 3 9 12 8 8 10 8 5 6 7 7 7 7 10 13 12 12 14 14 12 11 11 12 12 12 11 10 10 10 9 9 10 9 9 9 9 8 10 16 23 25 22
Height
5903 5902 5902 5901 5900 5900 5899 5898 5898 5897 5896 5896 5895 5894 5894 5894 5893 5893 5893 5893 5893 5893 5893 5893 5893 5893 5893 5893 5893 5893 5894 5894 5894 5894 5894 5895 5896 5897 5897 5898 5899 5900 5900 5900 5901 5901 5901 5901 5901 5902 5902 5901 5901 5901 5901 5901 5901 5900 5900 5900 5901 5901 5901 5900 5900 5900 5900 5900 5900 5900 5899 5899 5899 5899 5898 5898 5897 5897 5897 5897 5897 5897 5896 5896 5895 5895 5895 5894
5903 5903 5902 5902 5901 5900 5900 5899 5898 5897 5897 5896 5895 5895 5894 5894 5893 5893 5893 5893 5893 5893 5893 5893 5893 5893 5893 5893 5893 5893 5893 5893 5893 5894 5894 5894 5895 5896 5896 5897 5898 5899 5900 5900 5900 5901 5901 5901 5902 5902 5902 5902 5902 5901 5901 5902 5901 5901 5901 5901 5901 5901 5901 5901 5900 5900 5900 5900 5900 5900 5900 5899 5899 5899 5898 5898 5898 5897 5897 5897 5897 5897 5897 5896 5896 5895 5895 5895
5904 5904 5903 5902 5902 5901 5900 5900 5899 5898 5897 5896 5896 5895 5894 5894 5893 5893 5893 5893 5893 5892 5892 5892 5892 5892 5892 5892 5892 5892 5892 5893 5893 5893 5893 5893 5894 5895 5895 5896 5897 5898 5899 5900 5900 5900 5901 5901 5902 5902 5902 5902 5902 5902 5901 5902 5902 5902 5902 5901 5901 5901 5901 5901 5901 5901 5900 5900 5900 5900 5900 5900 5899 5899 5899 5898 5898 5898 5897 5897 5897 5897 5897 5896 5896 5895 5895 5895
5905 5904 5904 5903 5902 5901 5901 5900 5899 5899 5898 5897 5896 5895 5895 5894 5894 5893 5893 5892 5892 5892 5892 5892 5892 5891 5892 5892 5892 5892 5892 5892 5892 5892 5892 5892 5893 5893 5894 5895 5895 5897 5898 5899 5899 5900 5901 5901 5902 5902 5902 5902 5902 5902 5902 5901 5902 5902 5902 5901 5901 5902 5902 5901 5901 5901 5901 5900 5900 5900 5899 5899 5899 5899 5899 5898 5898 5898 5898 5898 5897 5897 5897 5896 5896 5896 5895 5895
5905 5905 5904 5903 5903 5902 5901 5901 5900 5899 5898 5898 5897 5896 5895 5894 5894 5893 5893 5892 5892 5892 5891 5891 5891 5891 5891 5891 5891 5891 5891 5891 5891 5891 5891 5892 5892 5892 5893 5893 5894 5895 5897 5898 5899 5899 5900 5901 5902 5902 5902 5902 5902 5902 5902 5901 5901 5902 5902 5902 5902 5902 5902 5902 5901 5901 5900 5900 5900 5900 5899 5899 5899 5899 5898 5898 5898 5898 5898 5898 5897 5897 5897 5896 5896 5896 5895 5895
5905 5905 5904 5904 5903 5902 5902 5901 5900 5899 5899 5898 5897 5896 5896 5895 5894 5893 5893 5892 5892 5891 5891 5891 5890 5890 5890 5890 5890 5890 5890 5890 5891 5891 5891 5891 5891 5892 5892 5893 5893 5894 5895 5897 5898 5899 5900 5900 5901 5901 5902 5902 5902 5902 5902 5901 5901 5901 5902 5902 5902 5902 5902 5902 5901 5900 5900 5900 5900 5899 5899 5899 5899 5898 5898 5898 5898 5898 5898 5898 5897 5897 5896 5896 5896 5896 5896 5896
5905 5905 5904 5904 5903 5903 5902 5901 5901 5900 5899 5898 5897 5897 5896 5895 5894 5893 5893 5892 5892 5891 5891 5890 5890 5890 5889 5889 5889 5889 5889 5889 5890 5890 5890 5891 5891 5891 5892 5892 5892 5893 5894 5896 5897 5898 5898 5900 5900 5901 5901 5901 5902 5902 5902 5901 5901 5901 5902 5902 5902 5902 5902 5902 5901 5901 5900 5900 5900 5899 5899 5898 5898 5898 5898 5898 5898 5898 5898 5898 5897 5897 5896 5896 5896 5896 5896 5896
5905 5905 5905 5904 5904 5903 5902 5902 5901 5900 5899 5899 5898 5897 5896 5895 5894 5894 5893 5892 5891 5891 5890 5890 5889 5889 5889 5888 5889 5888 5888 5889 5889 5889 5889 5890 5890 5891 5891 5891 5892 5892 5893 5894 5895 5896 5897 5899 5900 5901 5901 5901 5901 5901 5901 5901 5901 5901 5902 5902 5902 5902 5902 5902 5902 5901 5900 5899 5899 5899 5898 5897 5897 5897 5898 5898 5898 5898 5898 5898 5897 5897 5897 5896 5896 5896 5896 5896
5905 5905 5905 5904 5904 5903 5903 5902 5901 5900 5900 5899 5898 5897 5896 5895 5895 5894 5893 5892 5891 5891 5890 5890 5889 5889 5888 5888 5888 5887 5888 5888 5888 5888 5889 5889 5890 5890 5890 5891 5891 5892 5892 5893 5894 5895 5896 5898 5899 5900 5901 5901 5901 5901 5901 5901 5901 5901 5901 5902 5902 5902 5902 5902 5902 5901 5900 5899 5899 5898 5898 5897 5897 5897 5898 5898 5898 5898 5898 5898 5897 5897 5897 5896 5896 5896 5896 5896
5905 5905 5904 5904 5904 5903 5903 5902 5901 5900 5900 5899 5898 5897 5896 5896 5895 5894 5893 5892 5891 5890 5890 5889 5889 5888 5888 5887 5887 5887 5887 5887 5887 5887 5888 5888 5889 5889 5889 5890 5890 5891 5892 5892 5893 5894 5895 5897 5898 5899 5900 5901 5901 5901 5901 5901 5900 5901 5901 5902 5902 5902 5902 5902 5902 5901 5901 5900 5899 5898 5898 5898 5898 5898 5898 5898 5898 5898 5898 5898 5898 5897 5897 5897 5897 5896 5896 5896
5905 5905 5904 5904 5904 5903 5903 5902 5901 5901 5900 5899 5898 5897 5896 5896 5895 5894 5893 5892 5891 5890 5889 5889 5888 5888 5887 5887 5886 5886 5886 5886 5886 5887 5887 5887 5888 5888 5889 5889 5890 5890 5891 5892 5892 5893 5894 5895 5897 5898 5899 5900 5900 5900 5900 5900 5900 5900 5901 5901 5902 5902 5902 5902 5902 5902 5901 5900 5899 5899 5898 5898 5898 5898 5898 5898 5898 5898 5898 5898 5898 5897 5897 5897 5897 5896 5896 5896
5905 5904 5904 5904 5903 5903 5903 5902 5901 5901 5900 5899 5898 5897 5896 5896 5895 5894 5893 5892 5891 5890 5889 5888 5888 5887 5887 5886 5885 5885 5885 5885 5885 5886 5886 5886 5887 5887 5888 5888 5889 5889 5890 5891 5891 5892 5893 5894 5895 5897 5898 5899 5900 5900 5900 5900 5900 5900 5900 5901 5901 5902 5902 5902 5902 5902 5901 5901 5900 5899 5898 5898 5897 5898 5897 5897 5897 5898 5898 5898 5898 5897 5897 5897 5897 5896 5896 5896
5905 5904 5904 5904 5903 5903 5902 5902 5901 5900 5900 5899 5898 5897 5896 5895 5894 5894 5893 5891 5891 5890 5889 5888 5887 5887 5886 5885 5885 5885 5884 5884 5884 5885 5885 5885 5886 5886 5887 5887 5888 5888 5890 5891 5891 5891 5892 5893 5894 5896 5897 5898 5899 5899 5899 5899 5900 5900 5900 5901 5902 5902 5901 5902 5902 5901 5901 5901 5900 5898 5897 5897 5897 5897 5897 5897 5897 5897 5897 5898 5898 5897 5897 5897 5897 5896 5896 5896
5904 5904 5904 5903 5903 5903 5902 5902 5901 5900 5899 5899 5898 5897 5896 5895 5894 5893 5892 5891 5890 5889 5888 5887 5887 5886 5886 5885 5884 5884 5884 5883 5883 5884 5884 5884 5885 5885 5886 5886 5887 5888 5889 5890 5890 5890 5891 5892 5893 5895 5896 5897 5898 5898 5899 5899 5899 5900 5900 5901 5902 5901 5901 5901 5901 5901 5901 5900 5900 5899 5897 5897 5897 5897 5897 5897 5896 5896 5897 5897 5897 5897 5897 5897 5897 5896 5896 5896
5904 5904 5903 5903 5903 5902 5902 5901 5900 5900 5899 5898 5898 5897 5896 5895 5894 5893 5892 5891 5890 5889 5888 5887 5886 5886 5885 5884 5884 5883 5883 5883 5883 5883 5883 5883 5884 5884 5885 5885 5886 5887 5888 5889 5889 5890 5890 5891 5892 5894 5895 5896 5897 5898 5898 5899 5899 5900 5900 5900 5900 5901 5900 5900 5900 5900 5900 5900 5899 5899 5898 5897 5896 5897 5896 5896 5896 5896 5897 5898 5897 5898 5898 5897 5897 5896 5896 5896
5904 5903 5903 5902 5902 5902 5901 5901 5900 5899 5899 5898 5897 5896 5895 5894 5894 5893 5892 5891 5890 5888 5887 5887 5886 5885 5884 5884 5883 5882 5882 5882 5882 5882 5882 5882 5883 5883 5884 5884 5885 5886 5888 5888 5889 5889 5890 5891 5892 5893 5894 5895 5896 5897 5897 5898 5899 5899 5899 5899 5899 5899 5900 5899 5899 5899 5899 5899 5899 5898 5898 5897 5897 5896 5896 5896 5896 5896 5898 5898 5897 5898 5898 5898 5897 5896 5897 5897
5903 5903 5902 5902 5901 5901 5900 5900 5899 5899 5898 5897 5897 5896 5895 5894 5893 5892 5891 5890 5889 5888 5887 5886 5885 5884 5884 5883 5882 5882 5881 5881 5881 5881 5881 5881 5881 5882 5882 5883 5884 5885 5886 5887 5888 5889 5889 5890 5891 5892 5893 5895 5896 5896 5897 5898 5898 5898 5898 5898 5898 5899 5899 5899 5899 5898 5898 5898 5898 5898 5897 5897 5897 5896 5896 5896 5896 5896 5897 5897 5897 5898 5898 5897 5897 5897 5897 5897
5902 5902 5901 5901 5900 5900 5899 5899 5898 5898 5897 5896 5896 5895 5894 5893 5892 5892 5891 5890 5889 5888 5887 5886 5885 5884 5883 5882 5882 5881 5881 5880 5880 5880 5880 5880 5880 5881 5881 5882 5883 5884 5885 5886 5887 5887 5888 5889 5890 5891 5892 5893 5894 5894 5896 5897 5897 5897 5897 5897 5897 5897 5898 5898 5898 5897 5898 5898 5897 5897 5897 5896 5896 5896 5895 5896 5895 5895 5896 5897 5897 5898 5898 5897 5897 5897 5897 5897
5901 5901 5900 5900 5899 5899 5898 5898 5897 5897 5896 5896 5895 5894 5893 5893 5892 5891 5890 5889 5888 5887 5886 5885 5884 5883 5882 5882 5881 5880 5880 5879 5879 5879 5879 5879 5879 5880 5880 5881 5881 5882 5883 5884 5885 5886 5887 5888 5889 5891 5891 5891 5892 5892 5893 5894 5894 5895 5895 5896 5896 5896 5896 5896 5896 5896 5896 5897 5897 5896 5896 5896 5896 5895 5895 5895 5895 5895 5896 5896 5897 5897 5897 5897 5897 5897 5897 5897
5900 5900 5899 5899 5898 5898 5897 5897 5896 5895 5895 5894 5894 5893 5893 5892 5891 5890 5889 5889 5888 5887 5886 5885 5883 5882 5881 5881 5880 5880 5879 5879 5878 5878 5878 5878 5878 5879 5879 5879 5880 5880 5881 5882 5883 5885 5885 5886 5889 5889 5889 5889 5890 5890 5891 5892 5893 5893 5894 5894 5894 5894 5894 5894 5895 5895 5895 5896 5896 5896 5896 5895 5895 5895 5895 5895 5895 5895 5895 5896 5896 5897 5898 5897 5897 5897 5897 5897
5899 5899 5898 5898 5897 5896 5896 5895 5895 5894 5893 5893 5893 5892 5891 5891 5890 5889 5888 5888 5887 5886 5885 5884 5883 5882 5881 5880 5879 5879 5878 5878 5877 5877 5877 5877 5877 5877 5878 5878 5879 5879 5880 5881 5882 5883 5883 5885 5887 5887 5887 5887 5888 5888 5889 5891 5892 5892 5892 5892 5892 5893 5893 5893 5893 5894 5894 5895 5895 5895 5895 5895 5895 5895 5894 5894 5894 5894 5894 5895 5896 5897 5898 5897 5897 5897 5897 5898
5897 5897 5897 5896 5896 5895 5894 5894 5893 5893 5892 5891 5891 5891 5890 5889 5889 5888 5887 5886 5886 5885 5884 5883 5882 5881 5880 5879 5878 5878 5877 5877 5876 5876 5876 5876 5876 5877 5877 5877 5877 5878 5879 5880 5881 5881 5882 5885 5885 5884 5884 5885 5886 5887 5888 5889 5891 5891 5891 5891 5891 5892 5892 5892 5893 5893 5893 5894 5895 5895 5895 5895 5895 5894 5894 5894 5894 5894 5894 5894 5895 5897 5897 5897 5897 5897 5897 5898
5895 5895 5895 5894 5894 5893 5893 5892 5892 5891 5890 5889 5889 5889 5888 5888 5887 5887 5886 5885 5885 5884 5883 5882 5881 5880 5879 5879 5878 5877 5876 5876 5875 5875 5875 5875 5875 5876 5876 5876 5877 5877 5878 5878 5879 5880 5882 5883 5881 5880 5882 5883 5885 5886 5887 5888 5889 5890 5890 5890 5891 5891 5891 5892 5892 5892 5892 5893 5894 5894 5894 5894 5894 5893 5893 5893 5893 5894 5893 5894 5895 5896 5896 5897 5897 5897 5897 5898
5892 5892 5892 5892 5892 5892 5891 5890 5890 5889 5888 5888 5887 5887 5887 5886 5886 5885 5884 5884 5883 5883 5882 5881 5880 5879 5879 5878 5877 5876 5876 5875 5875 5874 5874 5874 5874 5875 5875 5875 5875 5876 5877 5877 5878 5879 5879 5879 5878 5879 5881 5882 5884 5885 5886 5887 5888 5889 5889 5889 5890 5890 5890 5891 5891 5891 5892 5892 5893 5893 5894 5893 5893 5892 5892 5892 5893 5893 5893 5893 5894 5894 5895 5896 5897 5897 5897 5898
5890 5890 5890 5890 5890 5889 5889 5888 5888 5887 5886 5886 5885 5885 5885 5884 5884 5883 5883 5882 5882 5881 5881 5880 5879 5878 5877 5877 5876 5875 5875 5874 5873 5873 5873 5873 5873 5873 5874 5874 5874 5875 5875 5876 5876 5877 5877 5876 5877 5878 5879 5881 5883 5884 5886 5886 5887 5888 5888 5888 5888 5888 5889 5889 5889 5890 5891 5892 5891 5892 5893 5893 5892 5892 5891 5891 5892 5892 5892 5892 5893 5893 5894 5895 5896 5897 5897 5898
5887 5887 5887 5887 5887 5887 5886 5886 5885 5884 5884 5884 5883 5883 5883 5882 5882 5882 5881 5881 5880 5879 5879 5878 5878 5877 5876 5876 5875 5874 5873 5873 5872 5872 5872 5872 5872 5872 5872 5873 5873 5873 5874 5875 5875 5875 5875 5875 5876 5877 5878 5880 5881 5883 5884 5884 5886 5887 5886 5886 5886 5886 5888 5888 5887 5889 5891 5891 5890 5891 5892 5892 5892 5891 5890 5890 5890 5891 5891 5891 5892 5892 5893 5894 5895 5896 5897 5898
5885 5884 5883 5883 5883 5883 5883 5883 5882 5881 5881 5881 5881 5880 5880 5880 5880 5879 5879 5878 5878 5877 5877 5876 5876 5876 5875 5874 5873 5873 5872 5871 5871 5870 5870 5870 5870 5871 5871 5871 5872 5872 5873 5874 5874 5874 5873 5874 5875 5876 5877 5879 5880 5881 5881 5882 5884 5885 5885 5885 5885 5885 5887 5886 5886 5888 5889 5889 5889 5890 5890 5891 5891 5890 5890 5889 5889 5890 5890 5890 5891 5892 5892 5893 5894 5895 5896 5897
5882 5881 5880 5880 5880 5880 5880 5880 5879 5878 5878 5878 5878 5878 5878 5878 5877 5877 5877 5876 5876 5875 5875 5874 5874 5874 5873 5873 5872 5871 5871 5870 5870 5870 5869 5869 5869 5869 5870 5870 5871 5871 5872 5873 5872 5872 5872 5873 5874 5875 5876 5877 5878 5879 5879 5880 5882 5883 5883 5883 5884 5885 5885 5884 5885 5886 5887 5888 5889 5889 5889 5890 5890 5889 5889 5888 5888 5889 5889 5889 5890 5891 5891 5891 5892 5893 5895 5896
5878 5878 5878 5876 5876 5876 5876 5876 5876 5875 5874 5874 5875 5875 5875 5875 5875 5875 5874 5874 5873 5873 5873 5872 5872 5872 5872 5871 5871 5870 5870 5869 5869 5869 5868 5868 5868 5868 5868 5869 5870 5870 5870 5871 5871 5871 5871 5873 5873 5874 5875 5876 5877 5877 5878 5879 5880 5881 5881 5882 5882 5883 5883 5883 5884 5885 5886 5887 5888 5887 5888 5889 5889 5889 5888 5887 5887 5888 5888 5888 5889 5889 5890 5890 5891 5892 5893 5895
5873 5874 5875 5873 5872 5872 5872 5872 5872 5871 5871 5871 5871 5872 5872 5872 5872 5872 5871 5871 5871 5871 5870 5870 5870 5870 5870 5870 5869 5869 5868 5868 5868 5868 5868 5867 5867 5867 5867 5868 5869 5869 5869 5869 5869 5870 5871 5872 5872 5873 5874 5874 5875 5876 5877 5878 5879 5879 5880 5880 5881 5882 5882 5882 5883 5884 5885 5887 5886 5886 5887 5888 5888 5888 5887 5886 5886 5887 5887 5888 5888 5888 5889 5890 5890 5891 5892 5893
5868 5869 5870 5870 5868 5867 5867 5867 5868 5867 5866 5867 5867 5868 5868 5868 5868 5869 5869 5868 5868 5868 5868 5868 5868 5868 5868 5868 5868 5867 5867 5867 5867 5867 5867 5866 5866 5866 5866 5867 5867 5867 5868 5869 5869 5870 5871 5872 5872 5872 5873 5874 5875 5875 5876 5877 5878 5878 5879 5880 5881 5881 5881 5882 5882 5883 5885 5885 5884 5884 5885 5886 5888 5887 5886 5886 5886 5887 5887 5887 5888 5888 5888 5889 5890 5890 5891 5892
5863 5864 5865 5866 5865 5863 5861 5862 5864 5863 5862 5863 5863 5864 5864 5864 5865 5866 5866 5865 5864 5864 5865 5865 5866 5866 5866 5866 5866 5866 5866 5865 5865 5865 5865 5865 5865 5865 5865 5865 5866 5867 5868 5869 5869 5869 5870 5871 5871 5872 5873 5873 5874 5875 5876 5876 5877 5878 5879 5880 5881 5881 5880 5881 5882 5882 5883 5882 5882 5882 5883 5885 5886 5886 5886 5886 5886 5886 5887 5887 5887 5887 5887 5888 5889 5889 5890 5891
5858 5859 5860 5860 5860 5858 5857 5857 5858 5859 5858 5858 5858 5859 5860 5859 5861 5864 5863 5861 5861 5862 5862 5863 5863 5863 5863 5864 5864 5864 5864 5864 5864 5863 5863 5864 5864 5864 5864 5864 5865 5867 5868 5868 5868 5869 5870 5871 5871 5872 5873 5873 5874 5875 5875 5875 5876 5877 5878 5879 5879 5880 5880 5881 5881 5881 5882 5881 5880 5880 5882 5884 5884 5884 5884 5885 5885 5886 5886 5886 5886 5886 5886 5886 5887 5888 5888 5889
5854 5855 5855 5855 5855 5854 5853 5852 5853 5854 5854 5853 5853 5855 5855 5855 5858 5861 5859 5857 5858 5859 5859 5860 5860 5860 5860 5861 5862 5862 5862 5862 5862 5862 5862 5862 5863 5863 5863 5864 5864 5865 5866 5866 5868 5869 5870 5871 5871 5871 5872 5873 5873 5874 5874 5875 5876 5877 5877 5878 5878 5879 5879 5880 5879 5880 5880 5879 5879 5879 5881 5882 5882 5882 5882 5883 5884 5885 5885 5885 5885 5885 5885 5885 5885 5886 5886 5887
5849 5851 5851 5851 5850 5850 5849 5849 5849 5849 5849 5848 5849 5849 5850 5852 5855 5856 5854 5853 5855 5856 5856 5857 5857 5857 5858 5858 5859 5860 5860 5860 5860 5860 5861 5861 5861 5862 5862 5863 5863 5863 5864 5866 5866 5868 5869 5870 5870 5870 5871 5872 5873 5873 5874 5874 5875 5875 5876 5877 5877 5877 5877 5878 5877 5877 5878 5878 5878 5878 5879 5880 5880 5880 5881 5881 5882 5883 5883 5884 5884 5884 5884 5884 5884 5884 5884 5884
5845 5846 5847 5846 5846 5846 5845 5845 5845 5845 5845 5844 5844 5845 5847 5849 5850 5850 5850 5849 5851 5853 5854 5854 5855 5855 5855 5855 5856 5857 5857 5858 5858 5859 5859 5860 5860 5861 5861 5861 5862 5862 5863 5864 5865 5867 5869 5869 5868 5869 5870 5871 5872 5872 5873 5873 5874 5874 5875 5875 5875 5875 5876 5876 5875 5875 5876 5877 5878 5877 5878 5878 5879 5879 5879 5879 5880 5881 5881 5882 5882 5882 5882 5882 5882 5882 5882 5882
5841 5842 5842 5842 5842 5841 5841 5841 5841 5841 5841 5841 5841 5842 5844 5844 5844 5845 5845 5846 5847 5849 5851 5851 5852 5853 5853 5853 5853 5854 5855 5856 5856 5857 5858 5858 5859 5859 5860 5860 5861 5861 5862 5863 5864 5866 5868 5868 5867 5868 5869 5870 5871 5871 5871 5872 5873 5873 5873 5873 5874 5874 5874 5874 5874 5874 5875 5877 5877 5876 5876 5877 5878 5878 5877 5877 5878 5878 5879 5880 5880 5881 5881 5881 5881 5881 5881 5881
5836 5836 5837 5838 5838 5838 5837 5836 5837 5837 5837 5837 5838 5839 5840 5840 5840 5840 5841 5842 5843 5845 5847 5848 5848 5849 5851 5851 5851 5851 5852 5853 5854 5855 5856 5857 5857 5858 5858 5859 5859 5860 5861 5862 5863 5864 5866 5867 5866 5867 5868 5869 5869 5870 5870 5871 5871 5872 5872 5872 5873 5873 5873 5873 5873 5873 5874 5876 5878 5876 5874 5875 5876 5876 5875 5875 5875 5875 5876 5877 5878 5879 5879 5879 5880 5879 5879 5880
5831 5831 5832 5833 5833 5833 5833 5832 5833 5833 5833 5834 5835 5835 5836 5836 5836 5836 5836 5837 5839 5841 5843 5844 5844 5847 5848 5849 5848 5849 5850 5851 5852 5854 5855 5855 5856 5856 5857 5858 5858 5859 5860 5861 5862 5863 5864 5865 5865 5865 5866 5867 5868 5868 5869 5869 5869 5870 5870 5871 5871 5872 5872 5872 5872 5872 5873 5875 5876 5874 5874 5874 5873 5872 5872 5872 5872 5872 5873 5875 5875 5876 5877 5878 5878 5878 5878 5878
5827 5827 5827 5828 5828 5828 5829 5828 5828 5828 5829 5830 5830 5830 5831 5832 5831 5832 5832 5833 5834 5836 5838 5839 5841 5844 5844 5845 5845 5846 5848 5849 5850 5852 5853 5853 5854 5855 5856 5856 5857 5858 5859 5860 5861 5862 5863 5864 5864 5864 5865 5866 5866 5867 5867 5868 5868 5868 5868 5869 5869 5869 5870 5870 5871 5871 5871 5872 5873 5872 5873 5873 5870 5869 5870 5870 5870 5870 5871 5871 5872 5873 5874 5875 5876 5877 5877 5877
5823 5822 5822 5823 5823 5823 5824 5824 5824 5825 5825 5826 5826 5826 5827 5827 5827 5828 5828 5829 5830 5832 5834 5836 5838 5839 5841 5842 5842 5843 5845 5846 5848 5850 5851 5852 5853 5854 5854 5855 5856 5857 5857 5858 5860 5860 5861 5863 5863 5863 5863 5864 5864 5865 5866 5867 5867 5867 5867 5868 5867 5867 5868 5869 5870 5870 5868 5869 5869 5868 5870 5870 5868 5867 5867 5867 5868 5868 5868 5868 5869 5870 5871 5873 5874 5875 5875 5875
5818 5818 5818 5819 5819 5819 5819 5819 5820 5820 5820 5821 5822 5822 5822 5823 5823 5823 5824 5825 5826 5827 5830 5832 5833 5835 5837 5838 5838 5839 5842 5844 5845 5847 5848 5850 5851 5852 5852 5853 5854 5855 5856 5857 5858 5859 5860 5861 5861 5861 5862 5862 5863 5864 5865 5866 5866 5866 5866 5866 5866 5865 5866 5867 5868 5867 5866 5865 5866 5865 5866 5866 5865 5865 5864 5864 5865 5866 5866 5866 5866 5867 5868 5870 5871 5872 5873 5873
5814 5813 5814 5814 5815 5815 5815 5815 5816 5816 5816 5816 5817 5817 5817 5819 5819 5819 5820 5821 5821 5823 5825 5827 5829 5831 5833 5834 5835 5837 5839 5841 5843 5845 5846 5848 5849 5849 5850 5852 5853 5854 5855 5856 5856 5857 5858 5859 5859 5859 5860 5861 5861 5862 5863 5863 5864 5863 5863 5864 5863 5863 5864 5864 5864 5864 5863 5863 5863 5863 5863 5863 5862 5862 5862 5862 5863 5863 5864 5864 5864 5864 5865 5867 5868 5869 5870 5871
5810 5809 5809 5810 5810 5811 5811 5811 5811 5811 5811 5812 5812 5812 5813 5814 5815 5815 5816 5816 5817 5818 5821 5823 5825 5827 5829 5830 5831 5833 5836 5838 5840 5842 5844 5845 5846 5847 5848 5850 5851 5852 5853 5854 5855 5855 5856 5857 5857 5857 5858 5859 5859 5860 5860 5860 5860 5861 5861 5861 5861 5861 5861 5861 5862 5861 5861 5861 5861 5861 5861 5860 5859 5859 5859 5859 5860 5861 5862 5862 5862 5862 5862 5863 5865 5866 5867 5868
5805 5805 5804 5805 5805 5806 5806 5807 5807 5806 5807 5807 5807 5807 5808 5809 5810 5811 5811 5812 5812 5814 5816 5819 5821 5822 5824 5826 5828 5830 5833 5835 5837 5839 5841 5843 5844 5845 5846 5848 5849 5850 5851 5852 5853 5854 5854 5855 5855 5856 5856 5857 5858 5858 5858 5858 5858 5858 5859 5859 5859 5859 5858 5859 5859 5858 5858 5858 5858 5858 5859 5857 5856 5856 5857 5857 5857 5858 5859 5860 5860 5860 5860 5860 5861 5863 5864 5865
5800 5800 5800 5800 5800 5801 5801 5802 5802 5802 5802 5802 5802 5803 5804 5804 5805 5807 5807 5807 5808 5810 5812 5814 5816 5818 5820 5823 5825 5827 5830 5832 5833 5836 5838 5840 5841 5843 5844 5846 5847 5848 5849 5850 5851 5852 5852 5853 5854 5854 5855 5855 5856 5856 5857 5857 5857 5857 5857 5857 5857 5857 5856 5856 5856 5856 5855 5855 5856 5855 5855 5855 5853 5853 5854 5854 5855 5855 5856 5857 5857 5857 5857 5858 5858 5859 5861 5862
5796 5795 5795 5795 5795 5796 5796 5797 5797 5797 5798 5798 5798 5798 5799 5800 5801 5802 5803 5803 5804 5806 5808 5810 5812 5814 5816 5819 5821 5824 5826 5828 5830 5833 5836 5838 5839 5840 5842 5843 5845 5846 5847 5848 5849 5850 5850 5851 5852 5853 5853 5854 5855 5855 5855 5856 5856 5856 5855 5855 5854 5854 5854 5854 5854 5854 5853 5853 5853 5852 5852 5852 5852 5851 5851 5852 5852 5853 5854 5854 5854 5855 5855 5855 5855 5856 5858 5859
5791 5791 5791 5791 5791 5791 5791 5792 5793 5793 5793 5793 5794 5795 5795 5796 5796 5798 5798 5799 5801 5802 5804 5806 5808 5810 5812 5815 5818 5820 5822 5824 5827 5830 5833 5835 5836 5838 5839 5840 5842 5843 5844 5846 5847 5848 5849 5849 5849 5851 5852 5852 5853 5853 5853 5854 5854 5854 5853 5852 5851 5851 5851 5851 5851 5851 5851 5850 5850 5849 5849 5850 5849 5848 5849 5849 5850 5851 5851 5851 5851 5852 5852 5852 5852 5853 5854 5855
5787 5787 5786 5787 5787 5787 5787 5788 5788 5789 5789 5790 5790 5791 5791 5792 5792 5793 5794 5796 5797 5798 5800 5801 5803 5806 5809 5811 5814 5816 5818 5820 5823 5826 5829 5831 5833 5835 5836 5837 5839 5840 5842 5843 5844 5845 5847 5846 5847 5849 5850 5850 5850 5851 5851 5851 5851 5851 5851 5850 5849 5848 5847 5847 5847 5847 5848 5847 5847 5847 5847 5847 5847 5846 5846 5847 5847 5848 5848 5848 5848 5849 5849 5849 5849 5849 5850 5852
5783 5782 5782 5782 5782 5783 5783 5784 5784 5784 5785 5786 5786 5787 5788 5788 5789 5789 5791 5792 5792 5794 5796 5797 5799 5802 5805 5808 5810 5811 5813 5816 5819 5821 5825 5828 5830 5832 5833 5834 5836 5838 5839 5840 5841 5843 5844 5843 5844 5847 5847 5846 5847 5848 5848 5848 5848 5848 5848 5847 5846 5845 5845 5844 5844 5844 5844 5844 5844 5844 5844 5844 5844 5844 5844 5845 5845 5845 5845 5846 5846 5846 5846 5846 5846 5846 5847 5848
5779 5778 5778 5778 5778 5779 5779 5780 5780 5780 5781 5782 5782 5783 5784 5784 5785 5786 5787 5788 5789 5790 5791 5793 5795 5799 5802 5804 5805 5807 5809 5813 5815 5818 5821 5824 5826 5828 5829 5830 5832 5834 5836 5837 5839 5841 5841 5841 5842 5843 5843 5843 5844 5845 5845 5845 5845 5845 5844 5844 5843 5843 5842 5842 5842 5842 5842 5842 5842 5842 5842 5842 5841 5842 5842 5842 5842 5842 5842 5843 5843 5843 5843 5844 5843 5843 5843 5845
5774 5774 5774 5773 5773 5774 5775 5776 5776 5776 5777 5778 5779 5779 5780 5781 5782 5783 5783 5784 5786 5786 5788 5790 5792 5794 5797 5799 5801 5803 5806 5809 5811 5814 5817 5820 5822 5824 5826 5827 5829 5831 5833 5834 5836 5837 5838 5838 5839 5840 5841 5840 5840 5841 5842 5842 5842 5842 5842 5842 5841 5840 5840 5840 5840 5840 5839 5840 5840 5840 5840 5839 5839 5839 5840 5840 5840 5839 5840 5840 5841 5841 5841 5841 5841 5841 5841 5842